DMSP 5D-2 F11 DEB

Satellite information

Favourite Embed

Satellite Type and Status

DEBRISIN ORBIT

Key statistics

Satellite DMSP 5D-2 F11 DEB at a glance.

Uptime

12217

Days in orbit

Revolutions

≈ 14.9

Per day

Orbit

SSO

Sun Synchronous Orbit

Inclination

98.5

Latest

Satellite identification and parameters

Extended collection of information and parameters for DMSP 5D-2 F11 DEB.

Object identification

Identified? True

Debris? True

Object name: DMSP 5D-2 F11 DEB

International designator: 1991-082X

Object number (NORAD): 28310

Object ID (CCSDS): 28310

Country: UNITED STATES OF AMERICA (US)

Current information (Y/N): Y

RCS size: SMALL

Orbital parameters

Period: 96.354 minutes

Inclination: 98.5377 deg

SMA: 6962.097 km

Apoapsis: 586.858 km

Periapsis: 581.067 km

RAAN: 233.3411 deg

Eccentricy: 0.0004159

Argument of periapsis: 168.1203 deg

Mean anomaly: 192.0114 deg

Mean motion: 14.94488651 rev/day

Mean motion (dot): 0.00058388 rev/day2

B* drag term: 0.005372 1/REarth

Two-line elements (TLE)

Creation date: May 8, 2025, 3:01 a.m.

Reference frame: TEME

Reference center: EARTH

Epoch: May 7, 2025, 6:22 a.m. UTC

TLE line 0: 0 DMSP 5D-2 F11 DEB

TLE line 1: 1 28310U 91082X 25127.26564912 .00058388 00000-0 53720-2 0 9997

TLE line 2: 2 28310 98.5377 233.3411 0004159 168.1203 192.0114 14.94488651 99468

Live tracking on map

Real-time ground track for satellite DMSP 5D-2 F11 DEB.

In-orbit conjunctions

A list of the most updated potential collisions computed for object DMSP 5D-2 F11 DEB.

Target Orbit TCA Probability of collision Miss distance Type
SL-3 R/B LEO 2024-11-30 22:16:58 0.0001591024 144.0 (m) ROCKET BODY
COSMOS 252 DEB * LEO 2024-11-10 19:38:57 0.0009645522 330.0 (m) DEBRIS

Associated space launch

Military meteorological satellite

DMSP 5D-2 F11 DEB was lifted into orbit during the mission ‘Atlas E | DMSP-5D2 F11’, on board a Atlas E space rocket.

The launch took place on Nov. 28, 1991, 1:23 p.m. from Space Launch Complex 3W.

For more information about the launch, click the button.

Launch to space Atlas E | DMSP-5D2 F11
Atlas E | DMSP-5D2 F11

Agency: N/A

Status: Launch Successful

Launch date: Nov. 28, 1991, 1:23 p.m. UTC

Rocket: Atlas E

Launch pad: Space Launch Complex 3W

Location: Vandenberg SFB, CA, USA

...

Latest news about this satellite

There are no fresh news available about this satellite. Check back as we update our databases every day.


Newsletter sign-up

Weekly statistics, charts and insights to help you stay on top of the space industry.